| time (UTC) | temp F | wind direction | speed MPH | gust MPH | rain 1hr in | rain 24hr in | rain mn in | humidity % | barometer mb |
| 20260904214533 | 52 | 57 | 0.0 | 5.0 | 0.01 | 0.08 | 0.08 | 90 | 993.5 |
| 20260904213032 | 52 | 82 | 2.0 | 6.0 | 0.00 | 0.07 | 0.07 | 91 | 993.5 |
| 20260904211531 | 52 | 43 | 2.0 | 4.0 | 0.00 | 0.07 | 0.07 | 91 | 993.4 |
| 20260904210034 | 52 | 33 | 0.0 | 1.0 | 0.01 | 0.07 | 0.07 | 91 | 993.4 |
| 20260904204531 | 52 | 132 | 0.0 | 0.0 | 0.01 | 0.07 | 0.07 | 90 | 993.5 |
| 20260904203028 | 52 | 132 | 0.0 | 1.0 | 0.02 | 0.07 | 0.07 | 90 | 993.6 |
| 20260904201527 | 53 | 132 | 0.0 | 3.0 | 0.03 | 0.07 | 0.07 | 90 | 993.6 |
| 20260904200028 | 53 | 89 | 1.0 | 4.0 | 0.05 | 0.06 | 0.06 | 90 | 993.7 |
| 20260904194525 | 53 | 126 | 1.0 | 3.0 | 0.06 | 0.06 | 0.06 | 90 | 993.7 |
| 20260904193026 | 54 | 126 | 0.0 | 2.0 | 0.05 | 0.06 | 0.06 | 89 | 993.8 |
| 20260904191523 | 54 | 126 | 1.0 | 4.0 | 0.02 | 0.03 | 0.03 | 88 | 994.0 |
| 20260904190021 | 55 | 138 | 0.0 | 4.0 | 0.02 | 0.02 | 0.02 | 87 | 993.9 |
| 20260904184524 | 55 | 132 | 0.0 | 3.0 | 0.01 | 0.01 | 0.01 | 84 | 994.0 |
| 20260904183021 | 56 | 122 | 1.0 | 4.0 | 0.01 | 0.01 | 0.01 | 80 | 994.1 |
| 20260904181540 | 57 | 98 | 0.0 | 5.0 | 0.01 | 0.01 | 0.01 | 76 | 994.1 |
| 20260904180018 | 57 | 129 | 0.0 | 4.0 | 0.00 | 0.00 | 0.00 | 70 | 994.1 |
| 20260904174517 | 58 | 138 | 0.0 | 6.0 | 0.00 | 0.00 | 0.00 | 65 | 994.2 |
| 20260904173022 | 59 | 135 | 0.0 | 3.0 | 0.00 | 0.00 | 0.00 | 64 | 994.2 |
| 20260904171516 | 59 | 105 | 0.0 | 4.0 | 0.00 | 0.00 | 0.00 | 65 | 994.3 |
| 20260904170014 | 59 | 130 | 1.0 | 5.0 | 0.00 | 0.00 | 0.00 | 68 | 994.3 |
| 20260904164514 | 59 | 148 | 2.0 | 6.0 | 0.00 | 0.00 | 0.00 | 71 | 994.3 |
| 20260904163013 | 60 | 141 | 4.0 | 7.0 | 0.00 | 0.00 | 0.00 | 71 | 994.4 |
| 20260904161513 | 60 | 179 | 5.0 | 8.0 | 0.00 | 0.00 | 0.00 | 71 | 994.4 |
| 20260904160014 | 61 | 176 | 4.0 | 6.0 | 0.00 | 0.00 | 0.00 | 67 | 994.5 |
| 20260904154509 | 61 | 142 | 2.0 | 5.0 | 0.00 | 0.00 | 0.00 | 63 | 994.6 |
| 20260904153016 | 62 | 144 | 2.0 | 7.0 | 0.00 | 0.00 | 0.00 | 58 | 994.7 |
| 20260904151508 | 62 | 167 | 6.0 | 10.0 | 0.00 | 0.00 | 0.00 | 59 | 994.7 |
| 20260904150006 | 63 | 136 | 4.0 | 8.0 | 0.00 | 0.00 | 0.00 | 60 | 994.8 |
| 20260904144506 | 63 | 129 | 2.0 | 7.0 | 0.00 | 0.00 | 0.00 | 57 | 994.9 |
| 20260904143004 | 63 | 113 | 3.0 | 8.0 | 0.00 | 0.00 | 0.00 | 57 | 995.1 |
| 20260904141504 | 63 | 168 | 5.0 | 8.0 | 0.00 | 0.00 | 0.00 | 58 | 995.2 |
| 20260904140100 | 63 | 151 | 4.0 | 8.0 | 0.00 | 0.00 | 0.00 | 57 | 995.4 |
| 20260904134605 | 62 | 173 | 0.0 | 9.0 | 0.00 | 0.00 | 0.00 | 57 | 995.5 |
| 20260904133057 | 63 | 164 | 2.0 | 7.0 | 0.00 | 0.00 | 0.00 | 58 | 995.6 |
| 20260904131556 | 63 | 163 | 1.0 | 6.0 | 0.00 | 0.00 | 0.00 | 56 | 995.7 |
| 20260904130055 | 63 | 108 | 2.0 | 5.0 | 0.00 | 0.00 | 0.00 | 58 | 995.7 |
| 20260904124554 | 63 | 160 | 4.0 | 6.0 | 0.00 | 0.00 | 0.00 | 59 | 995.9 |
| 20260904123055 | 62 | 178 | 4.0 | 9.0 | 0.00 | 0.00 | 0.00 | 61 | 996.1 |
| 20260904121550 | 62 | 155 | 5.0 | 9.0 | 0.00 | 0.00 | 0.00 | 60 | 996.2 |
| 20260904120051 | 62 | 155 | 5.0 | 9.0 | 0.00 | 0.00 | 0.00 | 60 | 996.4 |
| 20260904114546 | 62 | 144 | 5.0 | 8.0 | 0.00 | 0.00 | 0.00 | 65 | 996.4 |
| 20260904113046 | 62 | 147 | 8.0 | 10.0 | 0.00 | 0.00 | 0.00 | 60 | 996.6 |
| 20260904111546 | 63 | 167 | 5.0 | 8.0 | 0.00 | 0.00 | 0.00 | 59 | 996.8 |
| 20260904110043 | 63 | 169 | 6.0 | 9.0 | 0.00 | 0.00 | 0.00 | 56 | 996.8 |
| 20260904104550 | 63 | 148 | 3.0 | 8.0 | 0.00 | 0.00 | 0.00 | 55 | 997.0 |
| 20260904103039 | 63 | 140 | 5.0 | 8.0 | 0.00 | 0.00 | 0.00 | 55 | 997.2 |
| 20260904101538 | 63 | 151 | 3.0 | 8.0 | 0.00 | 0.00 | 0.00 | 59 | 997.2 |
| 20260904100039 | 64 | 119 | 4.0 | 7.0 | 0.00 | 0.00 | 0.00 | 56 | 997.2 |
| 20260904094535 | 64 | 190 | 1.0 | 4.0 | 0.00 | 0.00 | 0.00 | 53 | 997.4 |
| 20260904093031 | 62 | 159 | 0.0 | 3.0 | 0.00 | 0.00 | 0.00 | 59 | 997.4 |
| 20260904091531 | 61 | 152 | 3.0 | 6.0 | 0.00 | 0.00 | 0.00 | 59 | 997.5 |
| 20260904090028 | 61 | 136 | 2.0 | 6.0 | 0.00 | 0.00 | 0.00 | 60 | 997.6 |
| 20260904084534 | 62 | 67 | 0.0 | 2.0 | 0.00 | 0.00 | 0.00 | 62 | 997.6 |
| 20260904083029 | 63 | 140 | 0.0 | 1.0 | 0.00 | 0.00 | 0.00 | 61 | 997.7 |
| 20260904081522 | 62 | 163 | 0.0 | 2.0 | 0.00 | 0.00 | 0.00 | 66 | 997.8 |
| 20260904080020 | 60 | 163 | 0.0 | 0.0 | 0.00 | 0.00 | 0.00 | 68 | 997.8 |
| 20260904074514 | 57 | 254 | 0.0 | 1.0 | 0.00 | 0.00 | 0.00 | 77 | 998.0 |
| 20260904073011 | 56 | 325 | 0.0 | 1.0 | 0.00 | 0.00 | 0.00 | 81 | 998.0 |
| 20260904071504 | 54 | 336 | 2.0 | 4.0 | 0.00 | 0.00 | 0.00 | 84 | 998.0 |
| 20260904070000 | 53 | 330 | 2.0 | 4.0 | 0.00 | 0.00 | 0.00 | 89 | 998.2 |
| 20260904064556 | 52 | 157 | 0.0 | 0.0 | 0.00 | 0.00 | 0.00 | 92 | 998.2 |
| 20260904063052 | 50 | 157 | 0.0 | 2.0 | 0.00 | 0.00 | 0.00 | 93 | 998.3 |
| 20260904061548 | 49 | 157 | 0.0 | 0.0 | 0.00 | 0.00 | 0.00 | 93 | 998.4 |
| 20260904060050 | 47 | 157 | 0.0 | 0.0 | 0.00 | 0.00 | 0.00 | 93 | 998.3 |
| 20260904054542 | 45 | 157 | 0.0 | 0.0 | 0.00 | 0.00 | 0.00 | 93 | 998.2 |
| 20260904053042 | 43 | 157 | 0.0 | 0.0 | 0.00 | 0.00 | 0.00 | 93 | 998.3 |
| 20260904051538 | 41 | 157 | 0.0 | 0.0 | 0.00 | 0.00 | 0.00 | 93 | 998.4 |
| 20260904050040 | 40 | 157 | 0.0 | 0.0 | 0.00 | 0.00 | 0.00 | 93 | 998.5 |
| 20260904044535 | 40 | 157 | 0.0 | 0.0 | 0.00 | 0.00 | 0.00 | 93 | 998.6 |
| 20260904043033 | 39 | 157 | 0.0 | 0.0 | 0.00 | 0.00 | 0.00 | 93 | 998.6 |
| 20260904041532 | 39 | 157 | 0.0 | 0.0 | 0.00 | 0.00 | 0.00 | 93 | 998.8 |
| 20260904040037 | 39 | 157 | 0.0 | 0.0 | 0.00 | 0.00 | 0.00 | 93 | 998.7 |
| 20260904034534 | 40 | 157 | 0.0 | 0.0 | 0.00 | 0.00 | 0.00 | 93 | 998.7 |
| 20260904033029 | 40 | 157 | 0.0 | 2.0 | 0.00 | 0.00 | 0.00 | 93 | 998.8 |
| 20260904031526 | 40 | 157 | 0.0 | 0.0 | 0.00 | 0.00 | 0.00 | 93 | 998.7 |
| 20260904030025 | 39 | 157 | 0.0 | 0.0 | 0.00 | 0.00 | 0.00 | 93 | 998.8 |
| 20260904024524 | 40 | 157 | 0.0 | 0.0 | 0.00 | 0.00 | 0.00 | 93 | 998.9 |
| 20260904023021 | 40 | 157 | 0.0 | 0.0 | 0.00 | 0.00 | 0.00 | 93 | 999.0 |
| 20260904021520 | 39 | 157 | 0.0 | 0.0 | 0.00 | 0.00 | 0.00 | 93 | 999.0 |
| 20260904020018 | 40 | 157 | 0.0 | 0.0 | 0.00 | 0.00 | 0.00 | 93 | 999.2 |
| 20260904014514 | 41 | 157 | 0.0 | 0.0 | 0.00 | 0.00 | 0.00 | 93 | 999.3 |
| 20260904013011 | 41 | 157 | 0.0 | 0.0 | 0.00 | 0.00 | 0.00 | 93 | 999.5 |
| 20260904011521 | 41 | 157 | 0.0 | 0.0 | 0.00 | 0.00 | 0.00 | 93 | 999.7 |
| 20260904010010 | 41 | 157 | 0.0 | 0.0 | 0.00 | 0.00 | 0.00 | 93 | 999.8 |
| 20260904004503 | 41 | 157 | 0.0 | 0.0 | 0.00 | 0.00 | 0.00 | 93 | 1000.0 |
| 20260904003002 | 41 | 157 | 0.0 | 0.0 | 0.00 | 0.00 | 0.00 | 92 | 1000.0 |
| 20260904001606 | 42 | 157 | 0.0 | 0.0 | 0.00 | 0.00 | 0.00 | 92 | 1000.1 |
| 20260904000059 | 42 | 157 | 0.0 | 0.0 | 0.00 | 0.00 | 0.00 | 92 | 1000.2 |
| 20260903234557 | 43 | 157 | 0.0 | 0.0 | 0.00 | 0.00 | 0.00 | 92 | 1000.2 |
| 20260903233054 | 43 | 157 | 0.0 | 0.0 | 0.00 | 0.00 | 0.00 | 92 | 1000.3 |
| 20260903231551 | 44 | 157 | 0.0 | 0.0 | 0.00 | 0.00 | 0.00 | 92 | 1000.3 |
| 20260903230048 | 44 | 157 | 0.0 | 0.0 | 0.00 | 0.00 | 0.00 | 91 | 1000.5 |
| 20260903224545 | 45 | 157 | 0.0 | 0.0 | 0.00 | 0.00 | 0.00 | 91 | 1000.7 |
| 20260903223050 | 45 | 157 | 0.0 | 1.0 | 0.00 | 0.00 | 0.00 | 91 | 1000.9 |
| 20260903221539 | 45 | 157 | 0.0 | 0.0 | 0.00 | 0.00 | 0.00 | 91 | 1001.0 |
| 20260903220054 | 45 | 157 | 0.0 | 0.0 | 0.00 | 0.00 | 0.00 | 90 | 1001.1 |